Location: *
(57.8420°S, 159.8600°W)
Time: 04:21:53
(UTC+00:00)

MOS 1-B Rocket - Pass Details

Date: 18 May 2021
Orbit: 890 x 1606 km, 99.0° (Epoch: 23 June)

Event Time Altitude Azimuth Distance (km) Brightness Sun altitude
Rises 04:18:49 0° 40° (NE) 3,552 6.7 -14.3°
Reaches altitude 10° 04:21:10 10° 44° (NE) 2,655 6.0 -14.6°
Maximum altitude 04:26:52 54° 120° (ESE) 1,222 4.2 -15.3°
Drops below altitude 10° 04:33:23 10° 194° (SSW) 3,028 6.6 -16.2°
Sets 04:36:12 0° 198° (SSW) 4,095 7.3 -16.5°
